Beaver Island, MI

10:31 PM EDT on May 29, 2017 (GMT -0400)
Beaver Island

Weather History for KSJX - March, 2014

Change the Weather History Date:

Thursday, March 13, 2014

  Actual Average Record
Temperature  
Mean Temperature 10 °F -  
Max Temperature 27 °F 33 °F 57 °F (2002)
Min Temperature -8 °F 17 °F -8 °F (2014)
Degree Days  
Heating Degree Days 56    
Moisture  
Dew Point 6 °F    
Average Humidity 78    
Maximum Humidity 84    
Minimum Humidity 64    
Precipitation  
Precipitation 0.00 in - - ()
Sea Level Pressure  
Sea Level Pressure 29.93 in    
Wind  
Wind Speed 5 mph (SSW)    
Max Wind Speed 21 mph    
Max Gust Speed 28 mph    
Visibility 10 miles    
Events Snow    
Averages and records for this station are not official NWS values.
T = Trace of Precipitation, MM = Missing Value Source: NWS Daily Summary

Daily Weather History Graph

Daily Weather History Graph

Search for Another Location

Airport or City:

Trip Planner

Search our weather history database for the weather conditions in past years. The results will help you decide how hot, cold, wet, or windy it might be!

Date:

Astronomy

Mar. 13, 2014 Rise Set
Actual Time 7:58 AM EDT 7:45 PM EDT
Civil Twilight 7:29 AM EDT 8:15 PM EDT
Nautical Twilight 6:54 AM EDT 8:49 PM EDT
Astronomical Twilight 6:19 AM EDT 9:24 PM EDT
Moon 5:04 PM EDT (3/13) 6:12 AM EDT (3/13)
Length of Visible Light 12h 46m
Length of Day
11h 46m
Waxing Gibbous, 91% of the Moon is Illuminated
Mar 13
Waxing Gibbous
Mar 16
Full
Mar 23
Last Quarter
Mar 30
New
Apr 7
First Quarter

Hourly Weather History & Observations

Time (EDT) Temp. Windchill Dew Point Humidity Pressure Visibility Wind Dir Wind Speed Gust Speed Precip Events Conditions
12:15 AM 1.6 °F - -3.5 °F 79% 30.09 in 10.0 mi Calm Calm - N/A   Clear
12:36 AM 0.9 °F -6.9 °F -3.8 °F 81% 30.09 in 10.0 mi WNW 3.5 mph - N/A   Clear
12:55 AM 0.9 °F - -3.5 °F 82% 30.08 in 10.0 mi Calm Calm - N/A   Clear
1:15 AM 0.9 °F - -3.8 °F 81% 30.08 in 10.0 mi Calm Calm - N/A   Clear
1:36 AM 0.5 °F - -4.0 °F 81% 30.08 in 10.0 mi Calm Calm - N/A   Clear
1:55 AM -0.0 °F - -4.4 °F 82% 30.07 in 10.0 mi Calm Calm - N/A   Clear
2:16 AM -2.0 °F - -6.3 °F 82% 30.07 in 10.0 mi Calm Calm - N/A   Clear
2:36 AM -2.4 °F - -6.2 °F 84% 30.06 in 10.0 mi Calm Calm - N/A   Clear
2:55 AM -4.0 °F - -8.3 °F 82% 30.06 in 10.0 mi Calm Calm - N/A   Clear
3:16 AM -4.2 °F - -8.3 °F 82% 30.05 in 10.0 mi Calm Calm - N/A   Clear
3:36 AM -5.3 °F - -9.9 °F 80% 30.04 in 10.0 mi Calm Calm - N/A   Clear
3:55 AM -4.9 °F - -8.7 °F 84% 30.05 in 10.0 mi Calm Calm - N/A   Clear
4:16 AM -5.6 °F - -9.4 °F 84% 30.05 in 10.0 mi Calm Calm - N/A   Clear
4:35 AM -6.2 °F - -10.8 °F 80% 30.05 in 10.0 mi Calm Calm - N/A   Clear
4:55 AM -6.9 °F - -11.0 °F 82% 30.03 in 10.0 mi Calm Calm - N/A   Clear
5:16 AM -8.1 °F - -13.2 °F 79% 30.04 in 10.0 mi Calm Calm - N/A   Clear
5:35 AM -7.2 °F - -11.7 °F 81% 30.03 in 10.0 mi Calm Calm - N/A   Clear
5:55 AM -7.1 °F - -11.7 °F 80% 30.05 in 10.0 mi Calm Calm - N/A   Clear
6:16 AM -7.4 °F - -12.1 °F 80% 30.05 in 10.0 mi Calm Calm - N/A   Clear
6:35 AM -8.5 °F - -13.4 °F 79% 30.05 in 10.0 mi Calm Calm - N/A   Clear
6:56 AM -8.0 °F - -12.8 °F 79% 30.05 in 10.0 mi Calm Calm - N/A   Clear
7:16 AM -8.7 °F - -13.4 °F 80% 30.04 in 10.0 mi Calm Calm - N/A   Clear
7:35 AM -8.1 °F - -13.4 °F 78% 30.04 in 10.0 mi Calm Calm - N/A   Clear
7:56 AM -8.0 °F - -12.8 °F 79% 30.04 in 10.0 mi Calm Calm - N/A   Clear
8:16 AM -5.1 °F -13.6 °F -9.0 °F 83% 30.04 in 10.0 mi SSE 3.5 mph - N/A   Clear
8:35 AM -5.1 °F - -9.2 °F 82% 30.04 in 10.0 mi Calm Calm - N/A   Clear
8:56 AM 0.9 °F -8.9 °F -4.0 °F 80% 30.04 in 10.0 mi SSE 4.6 mph - N/A   Mostly Cloudy
9:16 AM 4.1 °F -5.1 °F -1.5 °F 78% 30.02 in 10.0 mi SSE 4.6 mph - N/A   Overcast
9:36 AM 5.7 °F -6.1 °F 0.3 °F 78% 30.02 in 10.0 mi South 6.9 mph - N/A   Overcast
9:55 AM 7.0 °F -3.3 °F 0.5 °F 75% 30.02 in 10.0 mi South 5.8 mph - N/A   Overcast
10:16 AM 9.1 °F -4.9 °F 1.4 °F 71% 30.01 in 10.0 mi South 10.4 mph - N/A   Overcast
10:36 AM 10.4 °F -1.5 °F 1.9 °F 69% 30.00 in 10.0 mi South 8.1 mph - N/A   Overcast
10:55 AM 10.9 °F 0.2 °F 1.8 °F 67% 30.00 in 10.0 mi SSE 6.9 mph - N/A   Overcast
11:16 AM 12.0 °F -0.4 °F 1.8 °F 64% 29.99 in 10.0 mi South 9.2 mph - N/A   Overcast
11:35 AM 13.1 °F 2.8 °F 3.0 °F 64% 29.98 in 10.0 mi South 6.9 mph - N/A   Overcast
11:55 AM 14.0 °F 1.2 °F 5.0 °F 67% 29.98 in 10.0 mi South 10.4 mph - N/A   Overcast
12:16 PM 15.8 °F 6.1 °F 7.2 °F 69% 29.96 in 10.0 mi South 6.9 mph 16.1 mph N/A   Mostly Cloudy
12:35 PM 17.8 °F 6.6 °F 9.0 °F 68% 29.95 in 10.0 mi South 9.2 mph - N/A   Scattered Clouds
12:56 PM 18.9 °F 9.8 °F 10.0 °F 69% 29.94 in 10.0 mi South 6.9 mph 16.1 mph N/A   Scattered Clouds
1:16 PM 18.7 °F 8.6 °F 10.6 °F 71% 29.94 in 10.0 mi SSW 8.1 mph 23.0 mph N/A   Mostly Cloudy
1:35 PM 18.3 °F 8.2 °F 10.6 °F 72% 29.93 in 10.0 mi South 8.1 mph 18.4 mph N/A   Overcast
1:56 PM 19.2 °F 6.4 °F 12.0 °F 74% 29.91 in 10.0 mi South 12.7 mph 20.7 mph N/A   Overcast
2:16 PM 19.9 °F 8.6 °F 12.6 °F 73% 29.90 in 10.0 mi SSW 10.4 mph 20.7 mph N/A   Mostly Cloudy
2:35 PM 21.0 °F 7.1 °F 14.0 °F 74% 29.88 in 10.0 mi SSW 16.1 mph 24.2 mph N/A   Overcast
2:56 PM 23.0 °F 10.1 °F 15.4 °F 73% 29.87 in 10.0 mi SSW 15.0 mph 26.5 mph N/A   Mostly Cloudy
3:16 PM 23.4 °F 12.2 °F 16.0 °F 73% 29.87 in 10.0 mi SSW 11.5 mph 20.7 mph N/A   Mostly Cloudy
3:35 PM 23.5 °F 12.4 °F 16.5 °F 75% 29.85 in 10.0 mi SSW 11.5 mph 25.3 mph N/A   Overcast
3:56 PM 23.4 °F 11.1 °F 17.4 °F 78% 29.84 in 10.0 mi South 13.8 mph 25.3 mph N/A   Overcast
4:15 PM 23.9 °F 10.8 °F 18.3 °F 79% 29.83 in 10.0 mi SSW 16.1 mph 24.2 mph N/A   Overcast
4:36 PM 24.6 °F 13.2 °F 18.7 °F 78% 29.83 in 10.0 mi SSW 12.7 mph 20.7 mph N/A   Overcast
4:56 PM 25.2 °F 12.4 °F 19.4 °F 79% 29.82 in 10.0 mi SSW 16.1 mph 23.0 mph N/A   Overcast
5:15 PM 25.2 °F 12.4 °F 19.4 °F 79% 29.82 in 10.0 mi SSW 16.1 mph 26.5 mph N/A Snow Light Snow
5:36 PM 25.3 °F 13.1 °F 19.4 °F 78% 29.81 in 10.0 mi SSW 15.0 mph 24.2 mph N/A   Overcast
5:55 PM 25.7 °F 11.5 °F 19.4 °F 77% 29.80 in 10.0 mi SSW 20.7 mph 26.5 mph N/A   Overcast
6:16 PM 26.1 °F 13.1 °F 19.2 °F 75% 29.79 in 10.0 mi SSW 17.3 mph 21.9 mph N/A   Overcast
6:36 PM 26.2 °F 12.6 °F 19.2 °F 75% 29.78 in 10.0 mi SSW 19.6 mph 27.6 mph N/A   Overcast
6:55 PM 26.4 °F 12.8 °F 19.0 °F 74% 29.79 in 10.0 mi SW 19.6 mph 25.3 mph N/A   Overcast
7:16 PM 26.2 °F 13.8 °F 19.0 °F 74% 29.78 in 10.0 mi SSW 16.1 mph 27.6 mph N/A   Mostly Cloudy
7:35 PM 26.2 °F 15.2 °F 19.4 °F 75% 29.79 in 10.0 mi SSW 12.7 mph 24.2 mph N/A   Mostly Cloudy
7:56 PM 26.6 °F 15.2 °F 19.9 °F 76% 29.79 in 10.0 mi SSW 13.8 mph 24.2 mph N/A   Overcast
8:16 PM 26.6 °F 15.2 °F 20.7 °F 78% 29.79 in 10.0 mi SSW 13.8 mph 23.0 mph N/A   Overcast
8:35 PM 27.0 °F 16.7 °F 21.6 °F 80% 29.78 in 10.0 mi SSW 11.5 mph 21.9 mph N/A   Overcast
8:56 PM 27.1 °F 14.9 °F 22.1 °F 81% 29.78 in 10.0 mi South 16.1 mph 26.5 mph N/A   Overcast
9:15 PM 27.1 °F 16.4 °F 22.6 °F 83% 29.77 in 10.0 mi South 12.7 mph 20.7 mph N/A   Mostly Cloudy
9:36 PM 27.1 °F 16.4 °F 22.8 °F 84% 29.77 in 10.0 mi SSW 12.7 mph 23.0 mph N/A   Clear
9:55 PM 27.3 °F 17.1 °F 23.0 °F 84% 29.76 in 10.0 mi South 11.5 mph 24.2 mph N/A   Clear
10:16 PM 27.1 °F 17.5 °F 22.8 °F 84% 29.75 in 10.0 mi South 10.4 mph 17.3 mph N/A   Clear
10:36 PM 27.1 °F 15.9 °F 22.6 °F 83% 29.74 in 10.0 mi South 13.8 mph 25.3 mph N/A   Clear
10:55 PM 27.0 °F 13.9 °F 22.5 °F 83% 29.73 in 10.0 mi South 18.4 mph 23.0 mph N/A   Clear
11:16 PM 26.6 °F 14.3 °F 22.1 °F 83% 29.71 in 10.0 mi South 16.1 mph 24.2 mph N/A   Clear
11:36 PM 27.1 °F 16.4 °F 22.5 °F 83% 29.71 in 10.0 mi South 12.7 mph 25.3 mph N/A   Clear
11:55 PM 27.3 °F 17.1 °F 22.6 °F 83% 29.70 in 10.0 mi South 11.5 mph 21.9 mph N/A   Clear